Regional Weather Roundup
Issued by NWS

Home | Current Version | Previous Version | Text Only | Print | Product List | Glossary On
Versions: 1 2 3 4 5 6 7 8 9 10 11 12 13 14 15 16 17 18 19 20 21 22 23 24 25 26 27 28 29 30 31 32 33 34 35 36 37 38 39 40 41 42 43 44 45 46 47 48 49 50
000
ASUS44 KFWD 270615
RWRTX
NORTH TEXAS HOURLY WEATHER ROUNDUP
NATIONAL WEATHER SERVICE FORT WORTH TX
100 AM CDT TUE JUN 27 2017

NOTE: "FAIR" INDICATES FEW OR NO CLOUDS BELOW 12,000 FEET WITH NO
SIGNIFICANT WEATHER AND/OR OBSTRUCTIONS TO VISIBILITY.

TXZ118-119-270700-
DALLAS/FORT WORTH METROPLEX

CITY           SKY/WX    TMP DP  RH WIND       PRES   REMARKS
DFW AIRPORT    MOCLDY    78  70  76 SE5       30.04S
6HR MIN TEMP:  78; 6HR MAX TEMP:  85;

DALLAS LOVE    MOCLDY    80  68  66 SE7       30.04F
6HR MIN TEMP:  80; 6HR MAX TEMP:  86;

FTW MEACHAM    PTCLDY    80  72  76 E7        30.05S
6HR MIN TEMP:  80; 6HR MAX TEMP:  85;

DAL-EXECUTIVE  CLOUDY    77  71  82 SE3       30.04S
6HR MIN TEMP:  77; 6HR MAX TEMP:  83;

FTW-ALLIANCE   PTCLDY    75  71  87 CALM      30.05S
6HR MIN TEMP:  74; 6HR MAX TEMP:  84;

FTW-NAS-JRB      N/A    N/A N/A N/A MISG      30.05S
FTW-SPINKS     CLEAR     76  71  83 CALM      30.07S
6HR MIN TEMP:  76; 6HR MAX TEMP:  84;

ARLINGTON      MOCLDY    79  72  79 E6        30.05S
6HR MIN TEMP:  77; 6HR MAX TEMP:  84; 6HR PCP: TRACE;

GRAND PRAIRIE  MOCLDY    78  69  73 CALM      30.06S
6HR MIN TEMP:  78; 6HR MAX TEMP:  83;

ADDISON        CLEAR     78  69  73 E5        30.07S
6HR MIN TEMP:  78; 6HR MAX TEMP:  84;

MESQUITE       PTCLDY    76  69  78 E3        30.05S
6HR MIN TEMP:  76; 6HR MAX TEMP:  84;

LANCASTER      PTCLDY    76  70  83 CALM      30.06S
6HR MIN TEMP:  75; 6HR MAX TEMP:  83;

$$

TXZ091>094-102>105-117-120-121-131>134-270700-
NORTH CENTRAL TEXAS

CITY           SKY/WX    TMP DP  RH WIND       PRES   REMARKS
SHRMAN/DENISON CLEAR     73  66  78 SE7       30.07S
6HR MIN TEMP:  73; 6HR MAX TEMP:  82;

GAINESVILLE    CLEAR     71  65  82 E3        30.09R
6HR MIN TEMP:  71; 6HR MAX TEMP:  82;

BOWIE          CLEAR     72  72  99 CALM      30.07S
6HR MIN TEMP:  72; 6HR MAX TEMP:  84;

BRIDGEPORT     PTCLDY    74  70  88 SE5       30.08S
6HR MIN TEMP:  73; 6HR MAX TEMP:  83;

DECATUR        CLOUDY    74  69  83 SE3       30.07S
6HR MIN TEMP:  74; 6HR MAX TEMP:  82;

DENTON         PTCLDY    74  71  91 SE3       30.05S
6HR MIN TEMP:  74; 6HR MAX TEMP:  84;

MCKINNEY       PTCLDY    75  71  87 SE3       30.05F
6HR MIN TEMP:  75; 6HR MAX TEMP:  83;

BONHAM         CLEAR     70  66  88 E5        30.07S
GREENVILLE     PTCLDY    75  68  78 CALM      30.06S
ROCKWALL       PTCLDY    76  69  79 E3        30.06S
6HR MIN TEMP:  76; 6HR MAX TEMP:  84;

TERRELL        CLEAR     75  68  78 E3        30.05S
6HR MIN TEMP:  75; 6HR MAX TEMP:  86;

WAXAHACHIE     MOCLDY    75  72  89 CALM      30.06S
6HR MIN TEMP:  75; 6HR MAX TEMP:  82;

CLEBURNE       MOCLDY    79  73  83 SE7       30.07S
GRANBURY       PTCLDY    79  72  78 CALM      30.07S
6HR MIN TEMP:  79; 6HR MAX TEMP:  85;

$$

TXZ083>090-098>101-113>116-127>130-139>142-154-155-270700-
WESTERN NORTH TEXAS

CITY           SKY/WX    TMP DP  RH WIND       PRES   REMARKS
WICHITA FALLS  CLEAR     71  68  90 E3        30.06R
6HR MIN TEMP:  71; 6HR MAX TEMP:  84;

WF-KICKAPOO    CLEAR     73  70  91 E7        30.09R
6HR MIN TEMP:  73; 6HR MAX TEMP:  85;

VERNON         CLOUDY    75  67  74 SE6       30.08R
6HR MIN TEMP:  75; 6HR MAX TEMP:  87;

ABILENE        CLEAR     70  68  93 SE6       30.11R
6HR MIN TEMP:  69; 6HR MAX TEMP:  79;

ABILENE-DYESS  CLEAR     70  70  99 S5        30.09S
6HR MIN TEMP:  70; 6HR MAX TEMP:  80;

GRAHAM         CLEAR     74  74 100 CALM      30.05F
6HR MIN TEMP:  72; 6HR MAX TEMP:  85;

BRECKENRIDGE   MOCLDY    75  69  81 S5        30.08S
6HR MIN TEMP:  75; 6HR MAX TEMP:  85;

CISCO          CLEAR     72  68  88 S3        30.10S
EASTLAND       MOCLDY    69  68  97 CALM      30.09S
6HR MIN TEMP:  69; 6HR MAX TEMP:  82;

RANGER         PTCLDY    69  68  96 CALM      30.09F
6HR MIN TEMP:  69; 6HR MAX TEMP:  85;

MINERAL WELLS  PTCLDY    74  70  87 SE5       30.05S
6HR MIN TEMP:  74; 6HR MAX TEMP:  83;

STEPHENVILLE   CLEAR     75  70  85 CALM      30.11S
6HR MIN TEMP:  75; 6HR MAX TEMP:  82;

COMANCHE       CLOUDY    72  72 100 CALM      30.09S
6HR MIN TEMP:  70; 6HR MAX TEMP:  75;

BROWNWOOD      MOCLDY    70  68  94 NW3       30.10R
COLEMAN        CLEAR     69  66  92 CALM      30.11S
6HR MIN TEMP:  68; 6HR MAX TEMP:  83;

$$

TXZ143>147-156>162-174-175-270700-
CENTRAL TEXAS

CITY           SKY/WX    TMP DP  RH WIND       PRES   REMARKS
WACO           CLOUDY    79  72  79 S10       30.05R
6HR MIN TEMP:  79; 6HR MAX TEMP:  86;

WACO-MCGREGOR  CLOUDY    78  72  81 S6        30.05R
6HR MIN TEMP:  78; 6HR MAX TEMP:  86;

HILLSBORO      CLOUDY    78  73  85 E8        30.05S
6HR MIN TEMP:  78; 6HR MAX TEMP:  84;

CORSICANA      CLOUDY    81  72  74 E7        30.06R
6HR MIN TEMP:  80; 6HR MAX TEMP:  87;

MEXIA          CLOUDY    76  71  85 S7        30.05S
6HR MIN TEMP:  76; 6HR MAX TEMP:  85;

HEARNE         MOCLDY    74  74 100 CALM      30.05S
6HR MIN TEMP:  74; 6HR MAX TEMP:  85;

CAMERON        CLOUDY    76  71  85 S3        30.05R
6HR MIN TEMP:  76; 6HR MAX TEMP:  88;

TEMPLE         CLOUDY    76  72  87 S6        30.05S
6HR MIN TEMP:  76; 6HR MAX TEMP:  85;

KILLEEN        MOCLDY    73  70  88 S8        30.04F
6HR MIN TEMP:  73; 6HR MAX TEMP:  83; 6HR PCP: TRACE;

KILLEEN-SKYLRK MOCLDY    74  72  93 S7        30.05F
6HR MIN TEMP:  74; 6HR MAX TEMP:  83; 6HR PCP:  0.02;

FORT HOOD      CLOUDY    72  70  93 SE3       30.03S
6HR MIN TEMP:  72; 6HR MAX TEMP:  83; 6HR PCP: TRACE;

HAMILTON       MOCLDY    74  74  98 W9        30.09R
6HR MIN TEMP:  74; 6HR MAX TEMP:  79;

LAMPASAS         N/A     73  71  94 W5        30.06S
6HR MIN TEMP:  73; 6HR MAX TEMP:  81;

$$

TXZ095>097-106>112-122>126-135>138-148>153-164>167-270700-
EAST TEXAS

CITY           SKY/WX    TMP DP  RH WIND       PRES   REMARKS
PARIS            N/A     70  64  81 E6        30.07S
6HR MIN TEMP:  70; 6HR MAX TEMP:  82;

SULPHUR SPRNGS   N/A     73  68  85 CALM      30.08S
6HR MIN TEMP:  73; 6HR MAX TEMP:  85;

MOUNT PLEASANT PTCLDY    71  67  86 CALM      30.07S
6HR MIN TEMP:  71; 6HR MAX TEMP:  85;

GILMER         PTCLDY    73  67  83 CALM      30.06S
6HR MIN TEMP:  72; 6HR MAX TEMP:  83;

MINEOLA        CLOUDY    72  68  88 CALM      30.06S
TYLER          MOCLDY    78  70  76 SE5       30.05S
6HR MIN TEMP:  77; 6HR MAX TEMP:  85;

LONGVIEW       CLOUDY    74  70  87 CALM      30.04
6HR MIN TEMP:  73; 6HR MAX TEMP:  84;

MARSHALL         N/A     70  67  89 CALM      30.08S
6HR MIN TEMP:  70; 6HR MAX TEMP:  82;

ATHENS         PTCLDY    73  70  88 CALM      30.04S
PALESTINE      MOCLDY    77  73  86 CALM      30.06S
JACKSONVILLE   PTCLDY    75  71  87 CALM      30.08S
HENDERSON      CLOUDY    73  70  91 CALM      30.07R
6HR MIN TEMP:  72; 6HR MAX TEMP:  84;

CENTER         CLOUDY    75  74  95 CALM      30.06F
6HR MIN TEMP:  75; 6HR MAX TEMP:  85;

NACOGDOCHES    PTCLDY    73  70  88 MISG      30.03S
6HR MIN TEMP:  73; 6HR MAX TEMP:  84;

LUFKIN         CLOUDY    74  71  91 CALM      30.03F
6HR MIN TEMP:  73; 6HR MAX TEMP:  84;

$$

SUPPLEMENTAL OBSERVATIONS (NWS


USA.gov is the U.S. government's official web portal to all federal, state and local government web resources and services.